User: anonymous   Login
Location: Oshawa
(43.9000°N, 78.8670°W)
Time: 21:32:06
(UTC-04:00)
Language:

SPOT 5 - Orbit

View from above orbital plane
View from above orbital plane
View from above satellite
View from above satellite

Ground track
Ground track

The orbit data is extracted from the following two-line orbital elements,

1 27421U 02021A   16273.77158159  .00000020  00000-0  16114-4 0  9992
2 27421  98.4454 330.2655 0136412  45.6552 315.5720 14.51818992747885
Epoch (UTC): 29 September 2016 18:31:04
Eccentricity: 0.0136412
inclination: 98.4454°
perigee height: 623 km
apogee height: 816 km
right ascension of ascending node: 330.2655°
argument of perigee: 45.6552°
revolutions per day: 14.51818992
mean anomaly at epoch: 315.5720°
orbit number at epoch: 74788

The dashed part of the orbit path shows where the satellite is in the earth's shadow,  

DLR